This demonstration page uses our WeatherBlox Daily Observations layout. Learn more.

Left ArrowRight Arrow

40.92945, -100.16068

Hourly Observations for April 5, 2020

Temp ( °F °C ) Dew Point ( °F °C ) Humidity (%) Winds ( mph kmh ) Pressure ( in mb ) Visibility ( mi km ) Precip ( " mm )
12:15 am 00:15 Clear 34 0.9 24 -4.6 67 67 SSE 9 15 30.11 1020 10 16 0.00 0.00
12:35 am 00:35 Clear 34 1.1 24 -4.5 67 67 SSE 10 17 30.11 1020 10 16 0.00 0.00
12:55 am 00:55 Clear 33 0.6 24 -4.5 69 69 SSE 8 13 30.11 1020 10 16 0.00 0.00
1:15 am 01:15 Clear 33 0.7 24 -4.3 70 70 SSE 9 15 30.11 1020 10 16 0.00 0.00
1:35 am 01:35 Clear 32 -0.2 24 -4.2 75 75 SE 7 11 30.12 1020 10 16 0.00 0.00
1:55 am 01:55 Clear 31 -0.5 25 -4.1 77 77 SSE 7 11 30.12 1020 10 16 0.00 0.00
2:15 am 02:15 Clear 30 -1 24 -4.2 79 79 SE 7 11 30.12 1020 10 16 0.00 0.00
2:35 am 02:35 Clear 30 -1.2 24 -4.3 80 80 SSE 6 9 30.12 1020 10 16 0.00 0.00
2:55 am 02:55 Clear 29 -1.7 24 -4.3 83 83 SSE 6 9 30.11 1020 10 16 0.00 0.00
3:15 am 03:15 Clear 30 -1.3 25 -4 82 82 SSE 6 9 30.11 1020 10 16 0.00 0.00
3:35 am 03:35 Clear 31 -0.5 25 -3.7 79 79 SSE 8 13 30.10 1019 10 16 0.00 0.00
3:55 am 03:55 Clear 30 -0.9 25 -3.8 81 81 SSE 7 11 30.10 1019 7 11 0.00 0.00
4:15 am 04:15 Clear 30 -1 26 -3.6 83 83 SSE 8 13 30.09 1019 7 11 0.00 0.00
4:35 am 04:35 Clear 31 -0.6 26 -3.5 81 81 SSE 7 11 30.07 1018 7 11 0.00 0.00
4:55 am 04:55 Clear 29 -1.5 26 -3.6 86 86 SSE 6 9 30.09 1019 7 11 0.00 0.00
5:15 am 05:15 Mostly Cloudy 30 -0.9 26 -3.2 85 85 SE 7 11 30.09 1019 7 11 0.00 0.00
5:35 am 05:35 Cloudy 31 -0.5 27 -2.7 85 85 SSE 8 13 30.09 1019 7 11 0.00 0.00
5:55 am 05:55 Mostly Cloudy 31 -0.5 27 -2.7 85 85 SE 6 9 30.07 1018 7 11 0.00 0.00
6:15 am 06:15 Mostly Cloudy 32 0 28 -2.4 84 84 SE 7 11 30.07 1018 7 11 0.00 0.00
6:35 am 06:35 Mostly Cloudy 32 0 28 -2.5 83 83 ESE 7 11 30.06 1018 7 11 0.00 0.00
6:55 am 06:55 Partly Cloudy 31 -0.6 28 -2.5 87 87 ESE 6 9 30.06 1018 7 11 0.00 0.00
7:15 am 07:15 Partly Cloudy with Mist and Fog 31 -0.5 28 -2.1 89 89 Calm 30.08 1019 5 8 0.00 0.00
7:35 am 07:35 Mostly Cloudy with Mist and Fog 31 -0.5 28 -2.1 89 89 Calm 30.09 1019 5 8 0.00 0.00
7:55 am 07:55 Mostly Cloudy with Mist and Fog 32 0 29 -1.7 88 88 Calm 30.09 1019 5 8 0.00 0.00
8:15 am 08:15 Mostly Cloudy with Mist and Fog 33 0.6 29 -1.5 86 86 SE 6 9 30.08 1019 5 8 0.00 0.00
8:35 am 08:35 Mostly Cloudy with Mist and Fog 34 0.9 30 -1.1 87 87 SSE 8 13 30.09 1019 5 8 0.00 0.00
8:55 am 08:55 Cloudy with Mist and Fog 34 1 31 -0.8 88 88 SSE 9 15 30.09 1019 5 8 0.00 0.00
9:15 am 09:15 Cloudy with Mist and Fog 36 2 32 -0.1 86 86 SE 9 15 30.07 1018 5 8 0.00 0.00
9:35 am 09:35 Cloudy with Haze 38 3.4 33 0.5 82 82 SE 12 19 30.05 1018 5 8 0.00 0.00
9:55 am 09:55 Cloudy with Haze 39 3.7 34 1 83 83 SSE 13 20 30.05 1018 5 8 0.00 0.00
10:15 am 10:15 Cloudy with Haze 39 4.1 34 1.3 82 82 SSE 16 26 30.05 1017 5 8 0.00 0.00
10:35 am 10:35 Cloudy with Haze 41 5.1 35 1.8 79 79 SSE 15 24 30.04 1017 5 8 0.00 0.00
10:55 am 10:55 Mostly Cloudy with Haze 43 5.9 36 2 76 76 SSE 17 28 30.03 1017 5 8 0.00 0.00
11:15 am 11:15 Hazy 43 6.2 36 2.1 75 75 SSE 17 28 30.03 1017 5 8 0.00 0.00
11:35 am 11:35 Hazy 45 7.1 37 2.8 74 74 SSE 16 26 30.01 1016 4 6 0.00 0.00
11:55 am 11:55 Hazy 46 7.8 38 3.2 73 73 SSE 16 26 29.99 1016 5 8 0.00 0.00
12:15 pm 12:15 Hazy 48 8.9 39 3.7 70 70 SE 15 24 29.98 1015 5 8 0.00 0.00
12:35 pm 12:35 Sunny 51 10.3 39 4.1 66 66 SE 15 24 29.96 1015 7 11 0.00 0.00
12:55 pm 12:55 Sunny 52 11 40 4.3 64 64 SE 17 28 29.95 1014 7 11 0.00 0.00
1:15 pm 13:15 Sunny 54 12.1 39 4.1 58 58 SE 18 30 29.92 1013 10 16 0.00 0.00
1:35 pm 13:35 Sunny 55 12.7 38 3.6 54 54 SSE 20 31 29.91 1013 10 16 0.00 0.00
1:55 pm 13:55 Sunny 57 13.8 38 3.6 50 50 SE 22 35 29.89 1012 10 16 0.00 0.00
2:15 pm 14:15 Sunny 57 14.1 38 3.4 49 49 SSE 16 26 29.87 1012 10 16 0.00 0.00
2:35 pm 14:35 Sunny 58 14.6 40 4.2 50 50 SSE 20 31 29.86 1011 10 16 0.00 0.00
2:55 pm 14:55 Sunny 58 14.7 41 4.8 52 52 SSE 21 33 29.85 1011 10 16 0.00 0.00
3:15 pm 15:15 Sunny 59 14.9 41 4.9 51 51 SSE 22 35 29.84 1010 10 16 0.00 0.00
3:35 pm 15:35 Sunny 58 14.7 41 4.8 52 52 SSE 22 35 29.83 1010 10 16 0.00 0.00
3:55 pm 15:55 Sunny 58 14.5 40 4.7 52 52 SSE 21 33 29.83 1010 10 16 0.00 0.00
4:15 pm 16:15 Sunny 58 14.7 41 4.9 52 52 S 23 37 29.82 1010 10 16 0.00 0.00
4:35 pm 16:35 Sunny 58 14.5 40 4.7 52 52 SSE 20 31 29.81 1009 10 16 0.00 0.00
4:55 pm 16:55 Sunny 59 14.8 41 5 52 52 SE 18 30 29.81 1009 10 16 0.00 0.00
5:15 pm 17:15 Sunny 59 14.8 41 5.1 52 52 SSE 22 35 29.80 1009 10 16 0.00 0.00
5:35 pm 17:35 Sunny 59 14.9 42 5.4 53 53 SE 18 30 29.79 1009 10 16 0.00 0.00
5:55 pm 17:55 Sunny 60 15.3 42 5.8 53 53 SSE 21 33 29.78 1009 10 16 0.00 0.00
6:15 pm 18:15 Partly Cloudy 59 15.1 43 6.1 55 55 SSE 20 31 29.79 1009 10 16 0.00 0.00
6:35 pm 18:35 Mostly Cloudy 58 14.2 45 7 62 62 S 21 33 29.79 1009 10 16 0.00 0.00
6:55 pm 18:55 Cloudy 57 13.7 44 6.9 64 64 SSE 18 30 29.80 1009 10 16 0.00 0.00
7:15 pm 19:15 Cloudy 55 13 45 7 67 67 S 22 35 29.80 1009 10 16 0.00 0.00
7:35 pm 19:35 Cloudy 53 11.8 44 6.9 72 72 S 22 35 29.81 1010 10 16 0.00 0.00
7:55 pm 19:55 Cloudy 52 11.1 44 6.7 75 75 S 20 31 29.82 1010 10 16 0.00 0.00
8:15 pm 20:15 Cloudy 51 10.3 44 6.5 78 78 S 20 31 29.83 1010 10 16 0.00 0.00
8:35 pm 20:35 Cloudy 50 10 44 6.5 79 79 S 17 28 29.83 1010 10 16 0.00 0.00
8:55 pm 20:55 Cloudy 50 9.9 44 6.5 80 80 S 15 24 29.84 1011 10 16 0.00 0.00
9:15 pm 21:15 Mostly Cloudy 48 9 43 6 82 82 S 14 22 29.85 1011 10 16 0.00 0.00
9:35 pm 21:35 Partly Cloudy 47 8.1 42 5.7 85 85 S 10 17 29.87 1011 10 16 0.00 0.00
9:55 pm 21:55 Clear 44 6.9 41 5.2 89 89 SSE 8 13 29.89 1012 10 16 0.00 0.00
10:15 pm 22:15 Clear 43 6.2 41 5 92 92 SSE 7 11 29.90 1012 10 16 0.00 0.00
10:35 pm 22:35 Clear 43 6.1 41 4.8 91 91 SSE 7 11 29.89 1012 10 16 0.00 0.00
10:55 pm 22:55 Clear 43 6 41 5 93 93 SE 6 9 29.89 1012 10 16 0.00 0.00
11:15 pm 23:15 Clear 45 7 42 5.7 92 92 SE 9 15 29.88 1012 10 16 0.00 0.00
11:35 pm 23:35 Clear 45 7 42 5.6 91 91 SE 12 19 29.87 1011 10 16 0.00 0.00
11:55 pm 23:55 Clear 44 6.5 42 5.3 92 92 SE 9 15 29.87 1012 10 16 0.00 0.00

Powered by AerisWeather